Location: Boulder, CO
(40.0083°N, 105.2472°W)
Time: 13:07:32
(UTC-06:00)

SORCE - Visible Passes

Search period start: 01 September 2014 00:00
Search period end: 11 September 2014 00:00
Orbit: 592 x 627 km, 40.0° (Epoch: 01 September)

Date Brightness Start Highest point End Pass type
(mag) Time Alt. Az. Time Alt. Az. Time Alt. Az.
01 Sep 7.1 20:40:41 10° SSW 20:44:29 26° SSE 20:45:47 23° ESE visible
01 Sep 8.3 22:21:37 10° WSW 22:22:40 17° WSW 22:22:40 17° WSW visible
02 Sep 6.5 20:53:32 10° SW 20:57:48 41° SSE 20:59:07 33° ESE visible
02 Sep 8.5 22:35:06 10° W 22:35:59 16° W 22:35:59 16° W visible
03 Sep 6.1 21:06:44 10° WSW 21:11:13 59° SSE 21:12:15 46° ESE visible
03 Sep 8.8 22:48:39 10° W 22:49:07 13° W 22:49:07 13° W visible
04 Sep 5.9 21:20:08 10° WSW 21:24:42 77° SSE 21:25:14 66° ESE visible
05 Sep 6.4 19:51:55 10° SW 19:56:16 47° SSE 20:00:41 10° E visible
05 Sep 6.0 21:33:39 10° W 21:38:07 85° WSW 21:38:07 85° WSW visible
06 Sep 6.1 20:05:12 10° WSW 20:09:42 67° SSE 20:14:03 11° E visible
06 Sep 6.5 21:47:11 10° W 21:50:54 58° W 21:50:54 58° W visible
07 Sep 6.0 20:18:39 10° WSW 20:23:12 83° S 20:26:47 17° E visible
07 Sep 7.3 22:00:44 10° W 22:03:37 39° W 22:03:37 39° W visible
08 Sep 6.0 20:32:11 10° W 20:36:45 89° N 20:39:28 24° E visible
08 Sep 7.9 22:14:16 10° W 22:16:19 26° W 22:16:19 26° W visible
09 Sep 6.0 20:45:44 10° W 20:50:17 89° S 20:52:08 36° E visible
09 Sep 8.5 22:27:51 10° W 22:28:59 17° W 22:28:59 17° W visible
10 Sep 6.0 20:59:16 10° W 21:03:49 79° S 21:04:48 54° ESE visible
10 Sep 9.0 22:41:32 10° W 22:41:38 11° W 22:41:38 11° W visible
